Simultaneous Nadir Overpasses (SNOs) Predictions

Prediction of SNOs between NOAA-21 and METOP-C Satellite Orbit:

Table of predicted SNOs for the next 14.0 days since TLE Epoch: 5/26/2023
Index Date (NOAA-21) Time (NOAA-21) Lat,Lon (NOAA-21) SZA (NOAA-21 ) Date (METOP-C) Time (METOP-C) Lat,Lon (METOP-C) SZA (METOP-C ) Distance(km) Time Diff (sec)
1 06/08/2023 09:55:17 73.32, 21.56 50.65 06/08/2023 09:56:25 73.27, 23.79 50.48 71.49 68
2 06/08/2023 10:46:00 -73.26,-171.00 129.42 06/08/2023 10:47:09 -73.19,-169.07 129.60 62.49 69
3 06/08/2023 11:36:41 73.02, -3.17 50.32 06/08/2023 11:37:52 72.99, -2.15 50.22 33.10 71
4 06/08/2023 12:27:24 -72.97, 164.27 129.75 06/08/2023 12:28:36 -72.91, 165.00 129.86 24.54 72
5 06/08/2023 13:18:06 72.77, -28.02 50.04 06/08/2023 13:19:18 72.76, -27.97 50.01 1.87 72
6 06/08/2023 14:08:50 -72.77, 139.31 129.97 06/08/2023 14:10:00 -72.79, 139.39 129.97 3.44 70
7 06/08/2023 14:59:35 72.73, -53.30 49.98 06/08/2023 15:00:40 72.74, -53.37 49.98 2.42 65
8 06/08/2023 15:50:20 -72.77, 113.92 129.97 06/08/2023 15:51:22 -72.76, 114.00 130.00 3.12 62
9 06/08/2023 16:41:05 72.73, -78.69 49.98 06/08/2023 16:42:02 72.71, -78.76 49.95 3.36 57
10 06/08/2023 17:31:49 -72.73, 88.64 130.03 06/08/2023 17:32:44 -72.74, 88.61 130.03 1.14 55
11 06/08/2023 18:22:35 72.74,-104.07 49.98 06/08/2023 18:23:23 72.74,-104.05 49.97 0.91 48
12 06/08/2023 19:13:19 -72.73, 63.25 130.03 06/08/2023 19:14:06 -72.71, 63.22 130.06 3.00 47
13 06/08/2023 20:04:04 72.69,-129.35 49.93 06/08/2023 20:04:45 72.71,-129.44 49.94 3.41 41
14 06/08/2023 20:54:49 -72.74, 37.87 130.03 06/08/2023 20:55:27 -72.74, 37.93 130.04 2.19 38
15 06/08/2023 21:45:34 72.70,-154.74 49.93 06/08/2023 21:46:07 72.69,-154.83 49.91 3.35 33
16 06/08/2023 22:36:18 -72.70, 12.59 130.08 06/08/2023 22:36:49 -72.71, 12.54 130.07 2.23 31
17 06/08/2023 23:27:04 72.71, 179.87 49.93 06/08/2023 23:27:28 72.71, 179.88 49.93 0.73 24
18 06/09/2023 00:17:48 -72.70, -12.80 130.08 06/09/2023 00:18:11 -72.68, -12.85 130.10 2.47 23
19 06/09/2023 01:08:34 72.71, 154.49 49.93 06/09/2023 01:08:50 72.69, 154.49 49.90 2.81 16
20 06/09/2023 01:59:18 -72.71, -38.19 130.08 06/09/2023 01:59:32 -72.71, -38.14 130.08 1.60 14
21 06/09/2023 02:50:04 72.72, 129.10 49.93 06/09/2023 02:50:11 72.71, 129.20 49.92 3.37 7



Historial Predications of SNOs between NOAA-21 and METOP-C
